EZY576N EGKK-EGPH

Flight info

Callsign EZY576N
Flight time 1h 1m
Altitude 38000
Route LAM L10 BPK UN601 RIBEL DCT INPIP
Aircraft A320/M-SDE3FGHIRWY/LB1

Departure

Time 2026-04-26 16:43
Airport London Gatwick Airport (EGKK)

Arrival

Time 2026-04-26 17:44
Airport Edinburgh Airport (EGPH)
Time Latitude Longitude Altitude Speed Heading
2026-04-26 15:59 51.15859 -0.17526 205 ft 0 kts 347°
2026-04-26 16:28 51.15849 -0.17522 216 ft 2 kts 345°
2026-04-26 16:28 51.15833 -0.17516 213 ft 2 kts 342°
2026-04-26 16:28 51.15818 -0.17507 217 ft 2 kts 340°
2026-04-26 16:28 51.15802 -0.17498 208 ft 2 kts 333°
2026-04-26 16:29 51.15788 -0.17485 212 ft 2 kts 322°
2026-04-26 16:29 51.15776 -0.17468 215 ft 2 kts 298°
2026-04-26 16:29 51.15771 -0.17443 213 ft 2 kts 262°
2026-04-26 16:29 51.15772 -0.17434 214 ft 0 kts 257°
2026-04-26 16:32 51.15770 -0.17446 213 ft 5 kts 257°
2026-04-26 16:32 51.15751 -0.17579 205 ft 18 kts 257°
2026-04-26 16:32 51.15728 -0.17760 208 ft 15 kts 258°
2026-04-26 16:33 51.15709 -0.17898 205 ft 2 kts 257°
2026-04-26 16:34 51.15703 -0.17941 215 ft 7 kts 257°
2026-04-26 16:34 51.15687 -0.18054 215 ft 13 kts 258°
2026-04-26 16:34 51.15665 -0.18225 205 ft 16 kts 258°
2026-04-26 16:34 51.15642 -0.18392 205 ft 15 kts 257°
2026-04-26 16:35 51.15621 -0.18542 205 ft 13 kts 257°
2026-04-26 16:35 51.15602 -0.18677 211 ft 12 kts 257°
2026-04-26 16:35 51.15582 -0.18796 210 ft 10 kts 243°
2026-04-26 16:35 51.15523 -0.18821 215 ft 9 kts 171°
2026-04-26 16:36 51.15468 -0.18803 205 ft 9 kts 168°
2026-04-26 16:36 51.15375 -0.18773 208 ft 19 kts 167°
2026-04-26 16:36 51.15244 -0.18726 214 ft 18 kts 167°
2026-04-26 16:36 51.15132 -0.18746 211 ft 16 kts 237°
2026-04-26 16:37 51.15108 -0.18910 207 ft 15 kts 258°
2026-04-26 16:37 51.15087 -0.19057 205 ft 13 kts 258°
2026-04-26 16:37 51.15070 -0.19188 207 ft 11 kts 258°
2026-04-26 16:37 51.15053 -0.19306 216 ft 10 kts 257°
2026-04-26 16:38 51.15039 -0.19409 211 ft 9 kts 257°
2026-04-26 16:38 51.15026 -0.19499 211 ft 8 kts 258°
2026-04-26 16:38 51.15012 -0.19601 205 ft 14 kts 258°
2026-04-26 16:38 51.14985 -0.19798 216 ft 19 kts 257°
2026-04-26 16:39 51.14959 -0.19982 205 ft 15 kts 257°
2026-04-26 16:39 51.14940 -0.20122 214 ft 12 kts 258°
2026-04-26 16:39 51.14923 -0.20246 209 ft 11 kts 257°
2026-04-26 16:39 51.14907 -0.20358 205 ft 10 kts 257°
2026-04-26 16:40 51.14893 -0.20459 208 ft 9 kts 258°
2026-04-26 16:40 51.14877 -0.20582 209 ft 15 kts 258°
2026-04-26 16:40 51.14847 -0.20798 207 ft 24 kts 258°
2026-04-26 16:40 51.14811 -0.21065 209 ft 21 kts 257°
2026-04-26 16:41 51.14771 -0.21260 205 ft 16 kts 256°
2026-04-26 16:41 51.14735 -0.21401 211 ft 13 kts 205°
2026-04-26 16:41 51.14660 -0.21358 217 ft 12 kts 139°
2026-04-26 16:41 51.14586 -0.21318 214 ft 10 kts 164°
2026-04-26 16:42 51.14523 -0.21230 212 ft 15 kts 119°
2026-04-26 16:42 51.14524 -0.21136 206 ft 0 kts 78°
2026-04-26 16:42 51.14524 -0.21135 211 ft 0 kts 78°
2026-04-26 16:42 51.14548 -0.20965 210 ft 46 kts 77°
2026-04-26 16:43 51.14670 -0.20093 212 ft 112 kts 77°
2026-04-26 16:43 51.14873 -0.18604 221 ft 161 kts 78°
2026-04-26 16:43 51.15115 -0.16772 637 ft 175 kts 78°
2026-04-26 16:43 51.15400 -0.14826 1262 ft 185 kts 76°
2026-04-26 16:44 51.15741 -0.12820 1871 ft 189 kts 77°
2026-04-26 16:44 51.16024 -0.10760 2517 ft 192 kts 79°
2026-04-26 16:44 51.16299 -0.08623 3156 ft 202 kts 79°
2026-04-26 16:44 51.16770 -0.06468 3805 ft 213 kts 60°
2026-04-26 16:45 51.17684 -0.04351 3898 ft 248 kts 54°
2026-04-26 16:45 51.18761 -0.02098 4508 ft 259 kts 53°
2026-04-26 16:45 51.19877 0.00184 5382 ft 264 kts 52°
2026-04-26 16:45 51.21025 0.02524 6213 ft 271 kts 52°
2026-04-26 16:46 51.22198 0.04924 7027 ft 277 kts 52°
2026-04-26 16:46 51.23375 0.07342 7824 ft 282 kts 52°
2026-04-26 16:46 51.24531 0.09897 8637 ft 287 kts 60°
2026-04-26 16:46 51.25264 0.12894 9422 ft 293 kts 78°
2026-04-26 16:47 51.25646 0.16114 10264 ft 296 kts 79°
2026-04-26 16:47 51.26027 0.19369 11005 ft 301 kts 79°
2026-04-26 16:47 51.26414 0.22681 11754 ft 305 kts 79°
2026-04-26 16:47 51.26808 0.26040 12522 ft 309 kts 79°
2026-04-26 16:48 51.27347 0.29383 13243 ft 314 kts 66°
2026-04-26 16:48 51.28567 0.32284 13948 ft 318 kts 43°
2026-04-26 16:48 51.30374 0.34288 14584 ft 320 kts 21°
2026-04-26 16:48 51.32506 0.35108 15211 ft 319 kts 359°
2026-04-26 16:49 51.34692 0.34649 15891 ft 319 kts 338°
2026-04-26 16:49 51.36763 0.33343 16532 ft 321 kts 335°
2026-04-26 16:49 51.38842 0.31981 17171 ft 325 kts 334°
2026-04-26 16:49 51.40950 0.30601 17822 ft 329 kts 334°
2026-04-26 16:50 51.43083 0.29207 18469 ft 333 kts 334°
2026-04-26 16:50 51.45239 0.27807 19024 ft 336 kts 335°
2026-04-26 16:50 51.47414 0.26395 19586 ft 339 kts 334°
2026-04-26 16:50 51.49609 0.24970 20161 ft 341 kts 334°
2026-04-26 16:51 51.51813 0.23535 20737 ft 343 kts 334°
2026-04-26 16:51 51.54036 0.22085 21292 ft 346 kts 334°
2026-04-26 16:51 51.56271 0.20625 21846 ft 348 kts 334°
2026-04-26 16:51 51.58520 0.19155 22389 ft 351 kts 335°
2026-04-26 16:52 51.60798 0.17664 22923 ft 354 kts 335°
2026-04-26 16:52 51.62280 0.16578 23270 ft 354 kts 328°
2026-04-26 16:52 51.64936 0.13471 23893 ft 355 kts 313°
2026-04-26 16:52 51.66551 0.10402 24027 ft 365 kts 301°
2026-04-26 16:53 51.67946 0.06909 24135 ft 377 kts 300°
2026-04-26 16:53 51.69380 0.03296 24254 ft 389 kts 300°
2026-04-26 16:53 51.70861 -0.00425 24402 ft 399 kts 300°
2026-04-26 16:53 51.72376 -0.04213 24728 ft 403 kts 300°
2026-04-26 16:54 51.73973 -0.07884 25098 ft 408 kts 307°
2026-04-26 16:54 51.75976 -0.11162 25476 ft 413 kts 317°
2026-04-26 16:54 51.78334 -0.13862 25858 ft 418 kts 327°
2026-04-26 16:54 51.80851 -0.16241 26225 ft 421 kts 327°
2026-04-26 16:55 51.83383 -0.18642 26601 ft 423 kts 327°
2026-04-26 16:55 51.85925 -0.21065 26979 ft 425 kts 327°
2026-04-26 16:55 51.88476 -0.23504 27352 ft 427 kts 326°
2026-04-26 16:55 51.91038 -0.25962 27719 ft 429 kts 326°
2026-04-26 16:56 51.96204 -0.30918 28454 ft 433 kts 326°
2026-04-26 16:56 51.98801 -0.33408 28801 ft 435 kts 326°
2026-04-26 16:56 52.01410 -0.35913 29160 ft 437 kts 326°
2026-04-26 16:57 52.04027 -0.38436 29481 ft 438 kts 326°
2026-04-26 16:57 52.06654 -0.40977 29802 ft 441 kts 326°
2026-04-26 16:57 52.11953 -0.46095 30394 ft 445 kts 326°
2026-04-26 16:58 52.14617 -0.48673 30651 ft 446 kts 326°
2026-04-26 16:58 52.16389 -0.50390 30836 ft 447 kts 326°
2026-04-26 16:58 52.22621 -0.56447 31483 ft 450 kts 326°
2026-04-26 16:59 52.25307 -0.59056 31859 ft 448 kts 326°
2026-04-26 16:59 52.30635 -0.64245 32646 ft 444 kts 326°
2026-04-26 17:00 52.35922 -0.69414 33421 ft 441 kts 326°
2026-04-26 17:00 52.41172 -0.74564 34165 ft 438 kts 326°
2026-04-26 17:00 52.43786 -0.77133 34499 ft 437 kts 326°
2026-04-26 17:01 52.46395 -0.79700 34812 ft 436 kts 326°
2026-04-26 17:01 52.48995 -0.82262 35114 ft 435 kts 326°
2026-04-26 17:01 52.51585 -0.84821 35400 ft 434 kts 326°
2026-04-26 17:01 52.54135 -0.87343 35692 ft 433 kts 325°
2026-04-26 17:02 52.56710 -0.89895 35983 ft 432 kts 325°
2026-04-26 17:02 52.59280 -0.92449 36251 ft 431 kts 325°
2026-04-26 17:02 52.61848 -0.95004 36503 ft 430 kts 325°
2026-04-26 17:02 52.64409 -0.97549 36750 ft 429 kts 325°
2026-04-26 17:03 52.66967 -1.00093 37010 ft 429 kts 325°
2026-04-26 17:03 52.69519 -1.02634 37212 ft 429 kts 325°
2026-04-26 17:03 52.72073 -1.05182 37418 ft 429 kts 325°
2026-04-26 17:03 52.74624 -1.07731 37654 ft 429 kts 325°
2026-04-26 17:04 52.77174 -1.10284 37906 ft 428 kts 325°
2026-04-26 17:04 52.79720 -1.12832 38158 ft 427 kts 325°
2026-04-26 17:04 52.82257 -1.15373 38266 ft 427 kts 325°
2026-04-26 17:04 52.84791 -1.17919 38275 ft 426 kts 325°
2026-04-26 17:05 52.89848 -1.23026 38274 ft 425 kts 325°
2026-04-26 17:05 52.94899 -1.28141 38272 ft 425 kts 324°
2026-04-26 17:06 52.99927 -1.33242 38271 ft 425 kts 325°
2026-04-26 17:06 53.04977 -1.38354 38264 ft 424 kts 324°
2026-04-26 17:07 53.10016 -1.43462 38264 ft 424 kts 324°
2026-04-26 17:07 53.15048 -1.48600 38257 ft 424 kts 324°
2026-04-26 17:08 53.20072 -1.53757 38253 ft 424 kts 324°
2026-04-26 17:08 53.25099 -1.58936 38272 ft 425 kts 324°
2026-04-26 17:09 53.29288 -1.63248 38268 ft 425 kts 324°
2026-04-26 17:09 53.35170 -1.69320 38264 ft 425 kts 324°
2026-04-26 17:10 53.40196 -1.74528 38258 ft 425 kts 324°
2026-04-26 17:10 53.45220 -1.79750 38256 ft 425 kts 324°
2026-04-26 17:11 53.50248 -1.84973 38257 ft 425 kts 324°
2026-04-26 17:11 53.55248 -1.90193 38256 ft 425 kts 324°
2026-04-26 17:12 53.62782 -1.98091 38253 ft 425 kts 324°
2026-04-26 17:13 53.70312 -2.06021 38255 ft 425 kts 324°
2026-04-26 17:14 53.78226 -2.12970 38249 ft 432 kts 334°
2026-04-26 17:14 53.86625 -2.18682 38243 ft 434 kts 334°
2026-04-26 17:15 53.94999 -2.24407 38245 ft 435 kts 333°
2026-04-26 17:16 54.00612 -2.28275 38264 ft 435 kts 333°
2026-04-26 17:16 54.06231 -2.32143 38266 ft 435 kts 333°
2026-04-26 17:17 54.11846 -2.36025 38262 ft 436 kts 333°
2026-04-26 17:17 54.17464 -2.39920 38266 ft 435 kts 333°
2026-04-26 17:18 54.22125 -2.43169 38273 ft 436 kts 333°
2026-04-26 17:18 54.27748 -2.47093 37824 ft 436 kts 333°
2026-04-26 17:18 54.30555 -2.49053 37140 ft 436 kts 333°
2026-04-26 17:19 54.36183 -2.52999 35864 ft 437 kts 332°
2026-04-26 17:19 54.39001 -2.54979 35317 ft 438 kts 332°
2026-04-26 17:19 54.41823 -2.56961 34778 ft 439 kts 332°
2026-04-26 17:20 54.44652 -2.58954 34244 ft 440 kts 331°
2026-04-26 17:20 54.46529 -2.60280 33851 ft 440 kts 331°
2026-04-26 17:20 54.50304 -2.62944 33071 ft 435 kts 331°
2026-04-26 17:20 54.53093 -2.64913 32481 ft 431 kts 332°
2026-04-26 17:21 54.55863 -2.66871 31893 ft 428 kts 332°
2026-04-26 17:21 54.58572 -2.68788 31352 ft 425 kts 332°
2026-04-26 17:21 54.61301 -2.70723 30802 ft 424 kts 332°
2026-04-26 17:21 54.64022 -2.72658 30252 ft 422 kts 332°
2026-04-26 17:22 54.66727 -2.74586 29624 ft 419 kts 333°
2026-04-26 17:22 54.69411 -2.76504 29009 ft 416 kts 333°
2026-04-26 17:22 54.72081 -2.78419 28434 ft 414 kts 333°
2026-04-26 17:22 54.74732 -2.80321 27829 ft 411 kts 333°
2026-04-26 17:23 54.77367 -2.82206 27268 ft 408 kts 333°
2026-04-26 17:23 54.79985 -2.84081 26699 ft 405 kts 333°
2026-04-26 17:23 54.82579 -2.85938 26148 ft 402 kts 333°
2026-04-26 17:23 54.85151 -2.87784 25658 ft 397 kts 333°
2026-04-26 17:24 54.87692 -2.89613 25191 ft 392 kts 334°
2026-04-26 17:24 54.90205 -2.91426 24740 ft 389 kts 334°
2026-04-26 17:24 54.92661 -2.93204 24298 ft 386 kts 334°
2026-04-26 17:24 54.95126 -2.94994 23855 ft 382 kts 334°
2026-04-26 17:25 54.97572 -2.96773 23350 ft 379 kts 334°
2026-04-26 17:25 54.99995 -2.98535 22827 ft 376 kts 334°
2026-04-26 17:25 55.02401 -3.00284 22322 ft 373 kts 334°
2026-04-26 17:25 55.04786 -3.02021 21819 ft 370 kts 334°
2026-04-26 17:26 55.07155 -3.03746 21324 ft 367 kts 334°
2026-04-26 17:26 55.09505 -3.05458 20852 ft 365 kts 334°
2026-04-26 17:26 55.11840 -3.07163 20360 ft 362 kts 334°
2026-04-26 17:26 55.14158 -3.08859 19897 ft 360 kts 334°
2026-04-26 17:27 55.16464 -3.10545 19433 ft 358 kts 334°
2026-04-26 17:27 55.18720 -3.12190 18966 ft 345 kts 334°
2026-04-26 17:27 55.20893 -3.13779 18512 ft 333 kts 334°
2026-04-26 17:27 55.22995 -3.15326 18008 ft 322 kts 334°
2026-04-26 17:28 55.25041 -3.16834 17476 ft 316 kts 334°
2026-04-26 17:28 55.27058 -3.18319 16951 ft 313 kts 334°
2026-04-26 17:28 55.29070 -3.19625 16441 ft 313 kts 342°
2026-04-26 17:28 55.31199 -3.20449 15934 ft 311 kts 340°
2026-04-26 17:29 55.33209 -3.21690 15335 ft 304 kts 334°
2026-04-26 17:29 55.34529 -3.22706 14727 ft 308 kts 332°
2026-04-26 17:29 55.37091 -3.24886 13932 ft 304 kts 330°
2026-04-26 17:29 55.38960 -3.26497 13474 ft 294 kts 330°
2026-04-26 17:30 55.40781 -3.28025 13023 ft 286 kts 331°
2026-04-26 17:30 55.42564 -3.29479 12580 ft 279 kts 331°
2026-04-26 17:30 55.44316 -3.30877 12135 ft 273 kts 332°
2026-04-26 17:30 55.46029 -3.32226 11703 ft 266 kts 331°
2026-04-26 17:31 55.47708 -3.33540 11282 ft 261 kts 332°
2026-04-26 17:31 55.49350 -3.34831 10872 ft 255 kts 329°
2026-04-26 17:31 55.50784 -3.36543 10509 ft 244 kts 315°
2026-04-26 17:31 55.52072 -3.38463 10165 ft 239 kts 316°
2026-04-26 17:32 55.53338 -3.40338 9793 ft 235 kts 316°
2026-04-26 17:32 55.54581 -3.42178 9430 ft 230 kts 316°
2026-04-26 17:32 55.55791 -3.43975 9097 ft 225 kts 315°
2026-04-26 17:32 55.56968 -3.45724 8761 ft 223 kts 315°
2026-04-26 17:33 55.58155 -3.47491 8435 ft 217 kts 315°
2026-04-26 17:33 55.59276 -3.49158 8163 ft 211 kts 315°
2026-04-26 17:33 55.60392 -3.50822 7855 ft 209 kts 315°
2026-04-26 17:34 55.62605 -3.54116 7335 ft 207 kts 316°
2026-04-26 17:34 55.63692 -3.55737 7111 ft 200 kts 316°
2026-04-26 17:34 55.64746 -3.57309 6889 ft 196 kts 315°
2026-04-26 17:34 55.65784 -3.58865 6668 ft 195 kts 316°
2026-04-26 17:35 55.66819 -3.60416 6438 ft 194 kts 316°
2026-04-26 17:35 55.67853 -3.61962 6204 ft 194 kts 316°
2026-04-26 17:35 55.68884 -3.63506 5972 ft 194 kts 316°
2026-04-26 17:35 55.69915 -3.65035 5740 ft 192 kts 317°
2026-04-26 17:36 55.70932 -3.66515 5511 ft 191 kts 317°
2026-04-26 17:36 55.71963 -3.68009 5294 ft 191 kts 317°
2026-04-26 17:36 55.72990 -3.69493 5061 ft 189 kts 316°
2026-04-26 17:36 55.73987 -3.70929 4839 ft 181 kts 317°
2026-04-26 17:37 55.74957 -3.72329 4603 ft 179 kts 317°
2026-04-26 17:37 55.75896 -3.73763 4380 ft 177 kts 313°
2026-04-26 17:37 55.76768 -3.75285 4160 ft 176 kts 310°
2026-04-26 17:38 55.78736 -3.77801 3998 ft 182 kts 341°
2026-04-26 17:38 55.80017 -3.77832 4001 ft 188 kts
2026-04-26 17:38 55.81197 -3.76799 4002 ft 192 kts 39°
2026-04-26 17:38 55.82072 -3.75052 4005 ft 192 kts 56°
2026-04-26 17:39 55.82779 -3.73037 4007 ft 192 kts 59°
2026-04-26 17:39 55.83472 -3.70995 4007 ft 192 kts 59°
2026-04-26 17:39 55.84167 -3.68965 3965 ft 189 kts 59°
2026-04-26 17:39 55.84840 -3.67005 3775 ft 185 kts 59°
2026-04-26 17:40 55.85500 -3.65082 3552 ft 181 kts 59°
2026-04-26 17:40 55.85944 -3.63789 3397 ft 180 kts 58°
2026-04-26 17:40 55.86782 -3.61344 3083 ft 168 kts 58°
2026-04-26 17:40 55.87374 -3.59616 2851 ft 161 kts 58°
2026-04-26 17:41 55.87953 -3.57927 2638 ft 159 kts 57°
2026-04-26 17:41 55.88527 -3.56248 2427 ft 158 kts 57°
2026-04-26 17:41 55.89097 -3.54579 2208 ft 157 kts 58°
2026-04-26 17:41 55.89664 -3.52922 2003 ft 157 kts 57°
2026-04-26 17:42 55.90228 -3.51270 1784 ft 156 kts 57°
2026-04-26 17:42 55.90791 -3.49620 1565 ft 155 kts 57°
2026-04-26 17:42 55.91351 -3.47977 1368 ft 155 kts 57°
2026-04-26 17:42 55.91906 -3.46349 1149 ft 153 kts 56°
2026-04-26 17:43 55.92450 -3.44750 946 ft 151 kts 56°
2026-04-26 17:43 55.92990 -3.43163 738 ft 145 kts 58°
2026-04-26 17:43 55.93496 -3.41673 550 ft 140 kts 58°
2026-04-26 17:43 55.94005 -3.40182 333 ft 139 kts 58°
2026-04-26 17:44 55.94500 -3.38735 162 ft 136 kts 59°
2026-04-26 17:44 55.94937 -3.37426 106 ft 93 kts 59°
2026-04-26 17:44 55.95173 -3.36732 109 ft 53 kts 59°
2026-04-26 17:44 55.95253 -3.36400 101 ft 13 kts 120°
2026-04-26 17:45 55.95213 -3.36371 102 ft 6 kts 159°
2026-04-26 17:45 55.95179 -3.36335 103 ft 0 kts 149°
2026-04-26 17:46 55.95158 -3.36308 104 ft 12 kts 137°
2026-04-26 17:47 55.95113 -3.36105 103 ft 21 kts 108°
2026-04-26 17:47 55.95080 -3.35946 105 ft 18 kts 119°
2026-04-26 17:47 55.95013 -3.35833 106 ft 9 kts 203°
2026-04-26 17:47 55.94994 -3.35908 105 ft 6 kts 252°
2026-04-26 17:48 55.94983 -3.35964 106 ft 4 kts 249°
2026-04-26 17:48 55.94978 -3.35987 106 ft 0 kts 250°